Tracking 28790 objects as of 19-Apr-2024
HD Live streaming from Space Station
objects crossing your sky now

STARLINK-2279

Track STARLINK-2279 now!
10-day predictions
STARLINK-2279 is classified as:


NORAD ID: 47991
Int'l Code: 2021-024Q
Perigee: 553.6 km
Apogee: 555.1 km
Inclination: 53.1 °
Period: 95.6 minutes
Semi major axis: 6925 km
RCS: Unknown
Launch date: March 24, 2021
Source: United States (US)
Launch site: AIR FORCE EASTERN TEST RANGE (AFETR)
Your satellite tracking list
Your tracking list is empty




NASA's NSSDC Master Catalog

Two Line Element Set (TLE):
1 47991U 21024Q   24110.22281754 -.00000522  00000-0 -16188-4 0  9997
2 47991  53.0536 116.7624 0001070 109.9491 250.1613 15.06395242171163
Source of the keplerian elements: AFSPC